Vertical_Velocity
-1 0 -0 1 1 1 -1 -0 0 1 2 -0 -0 -1 1 1 1 1 1 -0 0 1 -1 -1 -1 -0 -1 -0 -3 -2 -2 -2 -2 -3 -3 -2 0 -2 0 -4 -3 -1 0 1 -1 -3 -1 0 -2
1 0 -0 -1 -0 2 -4 -2 0 2 1 0 1 0 1 1 0 -0 -0 0 0 -0 -1 -0 -1 -0 0 -1 -2 -1 -2 -3 -2 -2 -4 -3 -1 -1 0 2 -1 -1 -2 -2 -0 -1 0 -0 1
-0 1 1 -0 1 1 -2 -3 3 1 1 1 0 0 1 0 -1 -1 -0 0 0 1 1 -2 -0 -1 -0 -0 -2 -0 0 -2 -4 -2 0 -2 -1 -1 -1 -1 0 -2 0 -2 -1 -2 -1 2 -0
-0 -1 -2 1 -0 1 -1 -3 1 0 1 1 -0 0 -1 -0 0 -1 -0 -0 -1 1 1 1 -0 -2 0 -2 -2 -2 -1 -2 -1 -2 -2 -3 0 -1 0 -1 0 -4 -1 -2 -5 -4 -3 -4 0
-1 -0 -1 1 1 2 -1 1 1 -0 -0 1 0 0 -0 -1 0 -1 -0 0 0 0 -0 -0 -0 0 -0 -1 0 -1 -2 -2 -3 -2 -4 -4 -3 -0 -2 -2 -2 4 1 -1 0 1 -0 -2 -2
0 -1 0 2 -5 7 -0 -1 -1 -1 0 0 1 -0 -1 0 -0 -1 -0 0 0 1 -0 1 -0 0 -0 -2 -1 -2 -3 -3 -3 -4 -4 -0 -1 -2 -1 -3 -2 -2 -1 -0 -2 -2 -0 -3 -2
-2 -1 2 1 0 1 1 -3 -0 -2 -1 1 -2 1 -0 0 -1 -1 -0 0 -0 -0 0 1 -0 -1 -2 -1 -2 -2 -2 -2 -3 -1 -1 2 -4 -0 -0 -1 -3 -2 -2 -2 0 -0 -2 1 -3
-1 -1 2 2 -1 -7 7 -2 -3 -1 4 0 -4 4 4 -1 0 -1 -0 0 0 -0 1 -1 -1 1 -1 0 0 0 -1 -0 -0 -4 -4 -1 -4 -1 -5 -3 0 -3 -3 -3 -2 -2 -4 -3 -0
-1 -1 0 -0 6 -7 -1 1 -1 -2 2 -2 -3 -0 5 -2 -0 -0 -0 -0 -1 -1 -0 -1 1 -1 0 1 0 -1 -2 -3 -3 -5 -1 -4 -4 -3 -2 -2 -1 -2 -3 -3 -1 -1 -1 -2 -4
-0 0 3 -1 0 -3 1 -3 5 -1 -0 -2 1 -3 4 1 -0 0 0 -0 -1 -1 -1 0 1 1 1 1 -1 -1 -1 -2 -2 -2 -3 -2 -3 -2 -0 -2 -2 -2 -1 -1 -2 -3 -4 -4 -2
1 0 -2 1 -1 -1 0 -2 -0 -2 1 1 -0 -0 2 -0 -0 -0 0 -0 -0 -1 -0 1 1 1 0 0 -1 2 0 1 -1 -1 2 3 -1 -2 -3 -3 -1 -1 -1 -1 0 -1 2 1 -4
-0 -2 -1 1 -0 0 1 -1 0 2 -4 1 -2 8 -4 0 1 1 -0 0 -1 -1 -1 -0 -0 -0 -0 -0 1 1 1 -1 -3 -1 -1 1 0 -1 -4 0 -1 -2 -3 -0 -0 0 -3 0 3
0 0 -0 -1 -1 -1 -1 -2 -1 5 -5 -0 -2 4 1 1 1 1 -0 1 -0 0 -0 -0 0 -1 -1 -1 2 -0 -1 -1 -1 -0 -3 -2 -1 3 -0 -1 -3 -3 -2 -2 -3 -3 0 1 -1
-1 -1 -1 -1 -1 1 -1 -0 -2 -5 -1 3 -1 -1 2 1 1 0 1 -1 1 1 0 0 0 -0 1 0 0 0 1 -0 -1 1 0 -0 -3 -5 0 -2 1 -1 -4 -5 0 1 -5 -4 -1
-1 0 -0 -1 -1 1 -2 3 -1 -2 -3 -4 5 -5 2 -0 1 -1 -1 2 2 2 1 1 1 0 -0 -0 -0 -1 -1 1 1 -0 -1 0 -2 -1 -6 -3 -2 -5 -6 -3 -3 -3 0 0 0
-2 -2 0 3 1 -3 -2 8 -0 -2 -1 -4 2 -1 1 0 0 0 1 1 1 1 1 -0 0 -0 1 1 -0 -0 -1 0 -1 0 -1 -2 -1 -4 -4 -1 -0 -3 -4 -6 -6 -4 -2 -4 -0
4 -2 -3 0 -1 -2 -4 4 -2 1 -1 -1 -2 0 1 1 1 1 0 0 2 2 0 0 -0 -0 0 0 1 0 -1 -1 -2 0 1 0 -3 -1 -2 -2 -2 -1 -3 -3 -2 -7 -5 -2 -4
-0 2 2 -5 -3 2 -6 7 -3 -7 3 1 -1 0 1 -0 0 -1 1 1 4 3 0 -1 -0 -0 0 1 -0 0 -0 -0 1 0 -1 0 -0 -1 -0 -2 -3 -3 -3 -1 -2 -4 -9 -8 -2
-2 -2 -2 -1 -2 4 -5 -3 -2 -2 -4 0 1 2 3 0 -2 0 2 2 4 1 0 -0 1 1 1 0 1 1 1 -1 -1 -3 -2 0 0 -2 -1 -2 -2 -2 -3 -3 -4 -2 -1 -9 -10
-3 -0 -0 1 -2 -2 -3 -2 -5 -1 -2 -3 6 -6 6 -1 3 0 3 3 2 -0 0 -0 -0 1 1 0 0 0 -1 -0 1 3 2 -3 -2 -1 -1 -2 -1 -3 -4 -3 -3 -4 -2 -4 -7
-3 -3 -2 -10 3 1 -1 -2 12 1 -1 -0 -2 1 -5 6 -2 -1 5 1 1 2 -0 3 0 -1 0 2 0 -1 -0 0 1 -0 -1 0 -2 -2 -3 -2 -1 -1 -2 -5 -6 -6 -9 -0 -8
1 -1 -1 -4 -4 -2 -7 -2 -3 -0 3 0 -2 -1 -3 -0 0 4 1 3 0 -1 1 -0 -0 1 1 -0 0 -0 -1 -1 3 -1 -2 -0 1 -1 -3 -1 -5 -4 -2 -3 -3 -2 -3 -5 -2
-2 -3 -2 -3 -3 -1 1 -3 -9 -2 -1 -0 4 2 1 -5 0 3 1 3 1 4 -1 -1 1 1 0 -0 -0 -0 -1 0 -0 -2 -1 1 -0 -1 -3 -3 -1 -1 -4 -4 -3 -3 -5 -4 -4
-2 1 -3 -0 -4 0 0 -1 5 -7 -3 3 -1 4 2 2 -3 -2 2 4 5 1 2 1 1 2 3 3 0 -0 -2 -1 1 0 1 1 1 3 2 0 -0 -1 -3 -3 -4 -5 -6 -4 -4
-3 -5 -9 -7 -8 -5 -3 -5 -4 -1 -3 -4 -0 1 1 1 4 -0 -0 0 4 2 1 1 -0 1 -1 -1 -0 -1 -0 2 -1 -2 -2 -3 -2 -1 -1 1 -2 -1 1 -1 -3 -4 -5 -6 -2
-1 -1 -1 -16 -6 -4 -1 -0 -2 -0 -3 -2 -0 -0 2 3 1 -1 0 -0 4 1 4 4 5 3 3 3 2 1 1 -0 0 1 1 -1 -0 -1 -4 -5 -3 -2 -3 -2 -2 -2 -3 -2 -5
-3 -1 -2 -6 3 -5 -0 -3 -2 1 -1 -1 -0 -2 -2 0 1 1 0 -1 1 1 1 2 1 1 3 2 1 2 2 2 1 -0 -1 -2 -5 -1 -2 -3 -3 -4 -3 -4 0 -1 -3 1 -1
1 -0 -5 -1 -13 -11 3 1 -3 -6 -4 -6 4 -6 1 2 1 2 3 2 1 0 3 -2 3 3 3 2 2 2 2 -0 -1 -1 -2 -1 -1 -3 0 -1 -3 -0 -3 -4 -5 -0 -2 0 -4
-2 0 -1 2 2 -9 -10 6 3 0 -5 -3 -6 0 0 1 -1 -3 -4 4 -0 -2 -0 2 1 -0 -2 -0 -1 -1 -2 -2 -1 -0 -2 -2 2 -3 -0 -2 -1 -1 1 -3 -5 -6 -5 -3 -1
-0 2 -2 -2 -3 -3 -4 13 6 -2 -6 -5 -2 -1 3 3 1 2 -7 11 6 -1 -0 1 1 -3 -1 -3 -0 -1 1 -0 1 1 1 0 1 1 -0 -4 -5 -3 -2 -4 -4 -3 -6 -8 -4
Height
5836 5836 5836 5836 5839 5837 5836 5837 5837 5838 5839 5838 5838 5838 5838 5838 5838 5840 5837 5837 5837 5837 5836 5836 5835 5834 5833 5832 5832 5830 5829 5826 5824 5822 5819 5816 5814 5810 5808 5806 5804 5802 5801 5800 5800 5800 5799 5799 5800
5836 5837 5836 5836 5837 5836 5835 5835 5836 5837 5837 5837 5836 5836 5836 5836 5836 5836 5835 5835 5835 5835 5835 5835 5834 5833 5831 5831 5830 5828 5827 5825 5823 5821 5819 5816 5813 5810 5807 5805 5803 5801 5800 5799 5798 5798 5797 5797 5796
5835 5835 5835 5835 5835 5835 5834 5834 5836 5835 5835 5835 5835 5835 5835 5835 5834 5834 5833 5833 5833 5833 5833 5833 5832 5831 5830 5829 5828 5827 5825 5824 5822 5819 5817 5816 5812 5810 5807 5805 5803 5801 5799 5798 5797 5797 5796 5795 5794
5834 5834 5835 5834 5834 5834 5833 5833 5834 5834 5834 5833 5833 5833 5833 5832 5832 5832 5831 5831 5831 5831 5831 5830 5829 5829 5828 5827 5827 5825 5824 5822 5820 5818 5816 5814 5811 5809 5806 5804 5801 5799 5798 5797 5795 5794 5794 5794 5793
5832 5832 5832 5832 5831 5832 5831 5831 5831 5832 5831 5831 5830 5830 5830 5830 5830 5830 5829 5829 5828 5828 5828 5827 5827 5826 5825 5825 5824 5822 5821 5820 5818 5816 5813 5811 5809 5807 5805 5803 5801 5798 5795 5794 5793 5793 5793 5791 5790
5829 5828 5829 5829 5827 5829 5828 5828 5828 5828 5828 5828 5828 5828 5828 5827 5827 5827 5827 5826 5826 5825 5825 5825 5824 5823 5822 5821 5821 5819 5818 5817 5815 5813 5812 5809 5807 5806 5803 5801 5799 5796 5794 5792 5790 5789 5790 5789 5788
5825 5825 5826 5825 5824 5825 5826 5825 5824 5824 5825 5825 5824 5824 5824 5823 5823 5823 5823 5823 5823 5822 5822 5821 5821 5820 5818 5818 5817 5816 5815 5814 5812 5811 5809 5807 5805 5803 5801 5799 5796 5793 5791 5789 5788 5787 5786 5786 5785
5822 5822 5822 5821 5820 5820 5823 5821 5820 5820 5821 5821 5819 5821 5821 5819 5819 5819 5819 5819 5819 5819 5818 5818 5817 5816 5815 5814 5813 5813 5812 5810 5808 5807 5805 5803 5802 5800 5798 5796 5793 5790 5788 5786 5784 5784 5784 5783 5782
5818 5818 5818 5817 5818 5816 5817 5817 5816 5815 5816 5815 5815 5815 5816 5815 5815 5814 5814 5814 5814 5815 5814 5813 5813 5812 5811 5810 5810 5809 5808 5806 5804 5803 5801 5799 5799 5797 5794 5792 5790 5788 5785 5782 5781 5779 5778 5779 5779
5814 5814 5814 5813 5812 5812 5812 5811 5812 5810 5810 5810 5811 5809 5811 5810 5809 5809 5809 5809 5809 5810 5809 5809 5808 5807 5806 5806 5805 5804 5803 5801 5800 5799 5797 5796 5794 5793 5791 5789 5786 5784 5782 5779 5776 5775 5774 5773 5774
5810 5810 5809 5808 5807 5807 5807 5806 5806 5804 5805 5804 5804 5804 5804 5803 5803 5803 5804 5804 5804 5804 5804 5804 5803 5802 5801 5801 5800 5799 5798 5797 5796 5795 5792 5791 5789 5788 5787 5786 5783 5780 5778 5775 5773 5772 5771 5769 5768
5806 5805 5804 5804 5802 5801 5801 5800 5800 5799 5798 5797 5796 5799 5796 5797 5797 5797 5797 5798 5798 5798 5798 5797 5797 5796 5795 5795 5795 5794 5793 5792 5791 5789 5787 5785 5784 5783 5782 5780 5778 5777 5774 5771 5769 5767 5766 5765 5763
5801 5801 5800 5799 5798 5796 5795 5794 5794 5793 5790 5791 5789 5791 5789 5790 5790 5790 5790 5791 5791 5791 5791 5791 5790 5790 5789 5788 5789 5788 5787 5786 5785 5783 5781 5780 5779 5777 5777 5775 5774 5772 5770 5768 5765 5763 5762 5760 5761
5797 5797 5796 5794 5793 5791 5789 5788 5787 5784 5782 5783 5781 5780 5782 5781 5782 5782 5783 5783 5784 5784 5784 5783 5783 5782 5782 5782 5781 5780 5780 5779 5778 5776 5775 5774 5773 5772 5771 5770 5768 5767 5766 5765 5762 5759 5757 5756 5754
5795 5794 5793 5790 5789 5787 5784 5784 5782 5778 5777 5773 5775 5771 5773 5773 5774 5774 5775 5775 5776 5776 5776 5776 5775 5775 5774 5774 5774 5773 5772 5771 5770 5770 5768 5767 5766 5765 5764 5764 5761 5761 5760 5760 5759 5757 5753 5751 5750
5792 5791 5789 5788 5786 5783 5779 5780 5775 5772 5770 5767 5767 5765 5765 5765 5766 5766 5767 5767 5767 5768 5768 5767 5767 5766 5766 5766 5765 5765 5764 5763 5762 5762 5761 5759 5758 5757 5757 5755 5754 5752 5752 5753 5752 5751 5748 5747 5745
5791 5787 5784 5784 5781 5778 5774 5773 5767 5765 5762 5761 5760 5759 5759 5758 5759 5759 5759 5760 5760 5760 5760 5759 5758 5758 5758 5757 5757 5756 5755 5755 5754 5753 5752 5750 5749 5748 5747 5746 5745 5744 5743 5743 5742 5742 5742 5740 5738
5787 5785 5783 5778 5777 5773 5768 5767 5761 5755 5755 5754 5752 5751 5751 5751 5751 5751 5752 5752 5753 5752 5751 5751 5750 5749 5749 5748 5747 5747 5746 5745 5744 5743 5742 5741 5739 5739 5738 5736 5735 5735 5735 5734 5734 5733 5731 5731 5730
5783 5781 5778 5775 5772 5769 5763 5758 5754 5749 5745 5746 5745 5743 5743 5742 5742 5743 5744 5745 5745 5743 5743 5742 5741 5741 5740 5738 5738 5737 5736 5735 5734 5732 5731 5731 5730 5729 5727 5726 5725 5725 5724 5723 5723 5722 5721 5719 5720
5779 5777 5774 5772 5767 5762 5758 5753 5747 5743 5740 5738 5738 5734 5736 5734 5735 5735 5737 5737 5736 5735 5734 5733 5733 5731 5730 5729 5727 5726 5725 5724 5723 5723 5722 5720 5719 5717 5716 5715 5713 5713 5712 5711 5711 5711 5710 5708 5708
5775 5772 5768 5765 5763 5758 5753 5749 5745 5739 5735 5732 5730 5729 5726 5728 5726 5727 5728 5727 5726 5725 5725 5724 5723 5722 5721 5719 5718 5716 5714 5713 5712 5711 5709 5708 5706 5705 5703 5702 5701 5699 5698 5698 5697 5697 5697 5697 5693
5771 5767 5763 5759 5756 5753 5748 5746 5740 5735 5732 5728 5725 5723 5720 5719 5719 5719 5718 5718 5717 5716 5716 5714 5713 5712 5711 5709 5706 5705 5704 5702 5700 5698 5696 5696 5694 5692 5691 5690 5688 5687 5685 5684 5683 5682 5682 5682 5682
5765 5761 5757 5752 5749 5748 5744 5740 5734 5730 5726 5723 5721 5718 5715 5712 5711 5712 5710 5710 5708 5708 5705 5703 5702 5700 5699 5697 5695 5692 5690 5689 5688 5685 5683 5682 5680 5678 5675 5673 5672 5671 5670 5669 5668 5666 5666 5665 5666
5758 5754 5750 5747 5743 5742 5737 5733 5729 5724 5720 5717 5714 5713 5709 5707 5704 5702 5702 5701 5700 5698 5695 5693 5691 5689 5687 5685 5682 5680 5677 5675 5673 5670 5668 5666 5664 5662 5660 5657 5655 5655 5654 5653 5651 5649 5648 5648 5648
5751 5746 5741 5737 5734 5732 5730 5726 5724 5718 5713 5710 5707 5704 5702 5699 5697 5694 5692 5691 5691 5688 5686 5683 5680 5677 5675 5672 5670 5667 5665 5662 5658 5655 5652 5650 5647 5645 5642 5640 5638 5636 5635 5634 5633 5632 5631 5630 5630
5744 5741 5736 5727 5725 5722 5723 5720 5718 5712 5707 5702 5698 5695 5692 5690 5687 5685 5683 5681 5679 5676 5674 5670 5667 5664 5661 5659 5655 5652 5649 5645 5641 5639 5635 5632 5629 5626 5624 5621 5618 5617 5616 5615 5614 5613 5613 5613 5612
5736 5734 5729 5723 5719 5711 5710 5709 5704 5706 5701 5695 5689 5686 5682 5679 5678 5676 5673 5671 5668 5665 5661 5658 5654 5650 5646 5643 5639 5635 5631 5627 5623 5619 5615 5612 5609 5606 5604 5602 5600 5597 5595 5594 5594 5594 5593 5593 5593
5729 5726 5721 5716 5709 5701 5699 5698 5692 5689 5686 5683 5681 5676 5673 5671 5667 5663 5660 5656 5652 5650 5647 5642 5639 5635 5631 5626 5622 5618 5613 5608 5603 5598 5595 5591 5587 5584 5581 5579 5578 5576 5574 5573 5573 5572 5572 5573 5572
5721 5716 5711 5707 5701 5695 5690 5686 5685 5683 5676 5669 5663 5660 5660 5659 5656 5652 5648 5645 5642 5637 5632 5627 5622 5618 5612 5608 5603 5598 5593 5588 5583 5578 5572 5568 5564 5560 5558 5555 5553 5552 5551 5549 5549 5550 5550 5551 5551
5710 5706 5702 5696 5690 5684 5680 5672 5676 5670 5664 5659 5654 5650 5648 5643 5638 5634 5629 5628 5623 5617 5613 5610 5605 5599 5594 5588 5583 5576 5570 5564 5559 5554 5549 5545 5542 5539 5536 5533 5530 5529 5527 5526 5526 5526 5527 5528 5529